N235MC KMAF-KTMT

Flight info

Callsign N235MC
Flight time 2h 15m
Altitude 43000
Route JOJOS RAVEE PTRRN DICEE REANA ASTNN
Aircraft LJ35/M-SGHRWXY/SB1

Departure

Time 2026-05-06 00:28
Airport Midland International Air and Space Port (KMAF)

Arrival

Time 2026-05-06 02:43
Airport Austin Airport (KTMT)
Time Latitude Longitude Altitude Speed Heading
2026-05-06 00:17 31.93996 -102.20747 2859 ft 0 kts
2026-05-06 00:22 31.94004 -102.20746 2857 ft 4 kts
2026-05-06 00:22 31.94016 -102.20742 2859 ft 0 kts 27°
2026-05-06 00:23 31.94027 -102.20714 2857 ft 7 kts 84°
2026-05-06 00:23 31.94028 -102.20640 2856 ft 10 kts 92°
2026-05-06 00:23 31.93977 -102.20565 2858 ft 14 kts 147°
2026-05-06 00:23 31.93879 -102.20537 2859 ft 13 kts 159°
2026-05-06 00:24 31.93823 -102.20473 2858 ft 13 kts 82°
2026-05-06 00:24 31.93830 -102.20354 2857 ft 16 kts 88°
2026-05-06 00:24 31.93829 -102.20208 2859 ft 20 kts 91°
2026-05-06 00:24 31.93828 -102.20035 2861 ft 23 kts 90°
2026-05-06 00:25 31.93826 -102.19839 2860 ft 24 kts 90°
2026-05-06 00:25 31.93824 -102.19640 2861 ft 23 kts 90°
2026-05-06 00:25 31.93837 -102.19540 2861 ft 0 kts 55°
2026-05-06 00:26 31.93840 -102.19535 2861 ft 4 kts 55°
2026-05-06 00:26 31.93883 -102.19464 2861 ft 15 kts 54°
2026-05-06 00:27 31.93935 -102.19405 2862 ft 6 kts 305°
2026-05-06 00:27 31.93950 -102.19451 2861 ft 7 kts 293°
2026-05-06 00:27 31.94011 -102.19618 2862 ft 54 kts 293°
2026-05-06 00:27 31.94266 -102.20297 2862 ft 123 kts 293°
2026-05-06 00:28 31.94680 -102.21366 3096 ft 159 kts 291°
2026-05-06 00:28 31.95168 -102.22675 3547 ft 190 kts 290°
2026-05-06 00:28 31.95722 -102.24196 4158 ft 213 kts 291°
2026-05-06 00:28 31.96337 -102.25854 4910 ft 228 kts 291°
2026-05-06 00:29 31.96996 -102.27610 5754 ft 239 kts 291°
2026-05-06 00:29 31.97656 -102.29438 6654 ft 245 kts 291°
2026-05-06 00:29 31.98349 -102.31310 7567 ft 253 kts 292°
2026-05-06 00:29 31.99259 -102.33117 8696 ft 261 kts 302°
2026-05-06 00:30 32.00525 -102.34670 9980 ft 263 kts 309°
2026-05-06 00:30 32.01767 -102.36246 11175 ft 263 kts 305°
2026-05-06 00:30 32.02976 -102.37889 12425 ft 268 kts 303°
2026-05-06 00:30 32.04206 -102.39559 13713 ft 272 kts 303°
2026-05-06 00:31 32.05457 -102.41213 14892 ft 275 kts 303°
2026-05-06 00:31 32.06740 -102.42893 16109 ft 278 kts 302°
2026-05-06 00:31 32.08049 -102.44601 17343 ft 284 kts 302°
2026-05-06 00:31 32.09391 -102.46359 18446 ft 294 kts 301°
2026-05-06 00:32 32.10788 -102.48193 19396 ft 305 kts 301°
2026-05-06 00:32 32.12229 -102.50074 20427 ft 312 kts 301°
2026-05-06 00:32 32.13697 -102.51988 21514 ft 317 kts 301°
2026-05-06 00:32 32.15183 -102.53923 22690 ft 318 kts 301°
2026-05-06 00:33 32.16671 -102.55858 23829 ft 317 kts 301°
2026-05-06 00:33 32.18147 -102.57776 24862 ft 315 kts 300°
2026-05-06 00:33 32.19616 -102.59692 25894 ft 315 kts 299°
2026-05-06 00:33 32.21088 -102.61622 26868 ft 317 kts 298°
2026-05-06 00:34 32.22567 -102.63564 27882 ft 318 kts 297°
2026-05-06 00:34 32.24053 -102.65518 28778 ft 322 kts 297°
2026-05-06 00:34 32.25568 -102.67504 29646 ft 330 kts 297°
2026-05-06 00:34 32.27090 -102.69508 30371 ft 333 kts 296°
2026-05-06 00:35 32.28667 -102.71590 31111 ft 337 kts 296°
2026-05-06 00:35 32.30252 -102.73679 31694 ft 345 kts 297°
2026-05-06 00:35 32.31874 -102.75812 32260 ft 353 kts 297°
2026-05-06 00:35 32.33526 -102.77989 32853 ft 358 kts 297°
2026-05-06 00:36 32.35202 -102.80194 33440 ft 363 kts 297°
2026-05-06 00:36 32.36881 -102.82403 33952 ft 368 kts 297°
2026-05-06 00:36 32.38624 -102.84695 34446 ft 371 kts 297°
2026-05-06 00:36 32.40338 -102.86949 34878 ft 376 kts 297°
2026-05-06 00:37 32.42094 -102.89261 35307 ft 379 kts 297°
2026-05-06 00:37 32.43864 -102.91595 35750 ft 382 kts 297°
2026-05-06 00:37 32.45642 -102.93937 36200 ft 384 kts 297°
2026-05-06 00:37 32.47433 -102.96297 36654 ft 386 kts 297°
2026-05-06 00:38 32.49228 -102.98660 37283 ft 383 kts 297°
2026-05-06 00:38 32.51005 -103.00993 37889 ft 380 kts 296°
2026-05-06 00:38 32.52767 -103.03317 38427 ft 379 kts 296°
2026-05-06 00:38 32.54521 -103.05636 38859 ft 377 kts 296°
2026-05-06 00:39 32.56267 -103.07951 39280 ft 376 kts 296°
2026-05-06 00:39 32.58010 -103.10263 39699 ft 375 kts 297°
2026-05-06 00:39 32.59159 -103.11790 39974 ft 375 kts 297°
2026-05-06 00:39 32.60894 -103.14093 40576 ft 373 kts 297°
2026-05-06 00:40 32.62614 -103.16389 41040 ft 371 kts 297°
2026-05-06 00:40 32.64334 -103.18672 41477 ft 372 kts 298°
2026-05-06 00:40 32.66055 -103.20945 41896 ft 370 kts 297°
2026-05-06 00:40 32.67767 -103.23217 42274 ft 369 kts 297°
2026-05-06 00:41 32.69468 -103.25491 42648 ft 368 kts 297°
2026-05-06 00:41 32.71172 -103.27771 42845 ft 371 kts 298°
2026-05-06 00:41 32.72899 -103.30089 42874 ft 377 kts 298°
2026-05-06 00:42 32.76406 -103.34793 42870 ft 380 kts 298°
2026-05-06 00:42 32.79920 -103.39463 42839 ft 377 kts 298°
2026-05-06 00:43 32.83399 -103.44101 42803 ft 374 kts 298°
2026-05-06 00:43 32.86842 -103.48708 42769 ft 371 kts 298°
2026-05-06 00:44 32.90264 -103.53299 42751 ft 370 kts 297°
2026-05-06 00:44 32.93672 -103.57880 42742 ft 369 kts 297°
2026-05-06 00:45 32.97050 -103.62427 42732 ft 369 kts 297°
2026-05-06 00:45 33.00449 -103.67003 42725 ft 369 kts 297°
2026-05-06 00:46 33.03843 -103.71584 42715 ft 368 kts 297°
2026-05-06 00:46 33.07234 -103.76160 42715 ft 368 kts 297°
2026-05-06 00:47 33.10626 -103.80743 42711 ft 368 kts 297°
2026-05-06 00:47 33.14009 -103.85322 42710 ft 368 kts 297°
2026-05-06 00:48 33.17399 -103.89915 42758 ft 369 kts 297°
2026-05-06 00:48 33.20791 -103.94519 42716 ft 369 kts 297°
2026-05-06 00:49 33.24180 -103.99126 42700 ft 369 kts 297°
2026-05-06 00:49 33.27569 -104.03732 42695 ft 369 kts 297°
2026-05-06 00:50 33.30949 -104.08339 42688 ft 369 kts 297°
2026-05-06 00:50 33.34356 -104.12957 42704 ft 370 kts 297°
2026-05-06 00:51 33.37734 -104.17584 42716 ft 367 kts 296°
2026-05-06 00:51 33.41084 -104.22201 42744 ft 368 kts 297°
2026-05-06 00:52 33.44466 -104.26832 42744 ft 370 kts 297°
2026-05-06 00:52 33.47866 -104.31480 42753 ft 373 kts 297°
2026-05-06 00:53 33.51301 -104.36174 42754 ft 375 kts 297°
2026-05-06 00:53 33.54574 -104.40950 42747 ft 367 kts 293°
2026-05-06 00:54 33.57614 -104.45867 42725 ft 366 kts 292°
2026-05-06 00:54 33.60648 -104.50784 42717 ft 366 kts 293°
2026-05-06 00:55 33.63691 -104.55653 42711 ft 368 kts 294°
2026-05-06 00:55 33.66778 -104.60564 42682 ft 368 kts 293°
2026-05-06 00:56 33.69859 -104.65486 42708 ft 370 kts 293°
2026-05-06 00:56 33.72962 -104.70398 42705 ft 369 kts 293°
2026-05-06 00:57 33.76062 -104.75320 42697 ft 368 kts 292°
2026-05-06 00:57 33.79143 -104.80235 42697 ft 369 kts 294°
2026-05-06 00:58 33.82238 -104.85151 42699 ft 370 kts 294°
2026-05-06 00:58 33.85330 -104.90099 42706 ft 369 kts 294°
2026-05-06 00:59 33.88416 -104.95041 42695 ft 368 kts 294°
2026-05-06 00:59 33.91500 -104.99980 42706 ft 369 kts 295°
2026-05-06 01:00 33.94590 -105.04915 42715 ft 369 kts 294°
2026-05-06 01:00 33.97661 -105.09872 42728 ft 370 kts 294°
2026-05-06 01:01 34.00742 -105.14832 42725 ft 370 kts 294°
2026-05-06 01:01 34.03810 -105.19772 42723 ft 370 kts 294°
2026-05-06 01:02 34.06920 -105.24785 42757 ft 371 kts 293°
2026-05-06 01:02 34.10006 -105.29771 42724 ft 371 kts 294°
2026-05-06 01:03 34.13085 -105.34768 42737 ft 371 kts 294°
2026-05-06 01:03 34.16154 -105.39729 42747 ft 371 kts 294°
2026-05-06 01:04 34.19243 -105.44731 42747 ft 371 kts 294°
2026-05-06 01:04 34.22321 -105.49732 42745 ft 371 kts 294°
2026-05-06 01:05 34.25399 -105.54739 42818 ft 371 kts 294°
2026-05-06 01:05 34.28481 -105.59759 42772 ft 372 kts 294°
2026-05-06 01:06 34.31564 -105.64791 42810 ft 372 kts 294°
2026-05-06 01:06 34.34645 -105.69825 42788 ft 372 kts 295°
2026-05-06 01:07 34.37728 -105.74863 42789 ft 372 kts 295°
2026-05-06 01:07 34.40795 -105.79896 42793 ft 371 kts 294°
2026-05-06 01:08 34.43864 -105.84919 42790 ft 370 kts 294°
2026-05-06 01:08 34.46924 -105.89937 42822 ft 371 kts 294°
2026-05-06 01:09 34.49982 -105.94972 42802 ft 371 kts 294°
2026-05-06 01:09 34.53033 -105.99999 42791 ft 370 kts 294°
2026-05-06 01:10 34.56062 -106.04999 42788 ft 370 kts 295°
2026-05-06 01:10 34.59128 -106.10060 42792 ft 370 kts 295°
2026-05-06 01:11 34.62151 -106.15060 42799 ft 370 kts 295°
2026-05-06 01:11 34.65190 -106.20096 42795 ft 370 kts 295°
2026-05-06 01:12 34.68235 -106.25146 42810 ft 371 kts 294°
2026-05-06 01:12 34.71291 -106.30224 42794 ft 372 kts 294°
2026-05-06 01:13 34.74350 -106.35310 42809 ft 373 kts 294°
2026-05-06 01:13 34.77408 -106.40411 42817 ft 373 kts 294°
2026-05-06 01:14 34.81996 -106.48067 42865 ft 374 kts 294°
2026-05-06 01:14 34.85058 -106.53190 42887 ft 374 kts 294°
2026-05-06 01:15 34.88122 -106.58321 42900 ft 375 kts 294°
2026-05-06 01:15 34.91185 -106.63458 42910 ft 375 kts 294°
2026-05-06 01:16 34.94249 -106.68602 42920 ft 375 kts 294°
2026-05-06 01:16 34.97310 -106.73751 42906 ft 375 kts 294°
2026-05-06 01:17 35.00370 -106.78904 42767 ft 375 kts 294°
2026-05-06 01:17 35.03430 -106.84066 42770 ft 375 kts 294°
2026-05-06 01:18 35.06488 -106.89235 42803 ft 376 kts 294°
2026-05-06 01:18 35.09556 -106.94428 42782 ft 378 kts 294°
2026-05-06 01:19 35.12634 -106.99643 42774 ft 379 kts 294°
2026-05-06 01:19 35.15714 -107.04867 42781 ft 379 kts 294°
2026-05-06 01:20 35.18796 -107.10107 42780 ft 380 kts 294°
2026-05-06 01:20 35.21865 -107.15330 42790 ft 381 kts 294°
2026-05-06 01:21 35.24980 -107.20638 42797 ft 382 kts 294°
2026-05-06 01:21 35.28081 -107.25932 42806 ft 384 kts 295°
2026-05-06 01:22 35.31202 -107.31273 42802 ft 386 kts 295°
2026-05-06 01:22 35.34314 -107.36601 42800 ft 387 kts 295°
2026-05-06 01:23 35.37454 -107.41981 42812 ft 389 kts 295°
2026-05-06 01:23 35.40599 -107.47380 42819 ft 390 kts 295°
2026-05-06 01:24 35.43752 -107.52802 42823 ft 391 kts 295°
2026-05-06 01:24 35.46375 -107.57324 42837 ft 392 kts 296°
2026-05-06 01:25 35.49542 -107.62788 42836 ft 393 kts 296°
2026-05-06 01:25 35.52711 -107.68259 42833 ft 393 kts 296°
2026-05-06 01:26 35.55877 -107.73744 42836 ft 394 kts 295°
2026-05-06 01:26 35.58824 -107.79364 42841 ft 390 kts 292°
2026-05-06 01:27 35.61603 -107.85083 42845 ft 390 kts 291°
2026-05-06 01:27 35.64405 -107.90805 42866 ft 391 kts 292°
2026-05-06 01:28 35.67244 -107.96537 42847 ft 392 kts 292°
2026-05-06 01:28 35.70091 -108.02264 42840 ft 392 kts 292°
2026-05-06 01:29 35.72918 -108.07955 42840 ft 392 kts 292°
2026-05-06 01:29 35.75761 -108.13686 42832 ft 392 kts 292°
2026-05-06 01:30 35.78603 -108.19424 42840 ft 392 kts 292°
2026-05-06 01:30 35.81439 -108.25164 42839 ft 392 kts 292°
2026-05-06 01:31 35.84274 -108.30912 42836 ft 393 kts 293°
2026-05-06 01:31 35.87114 -108.36675 42832 ft 393 kts 293°
2026-05-06 01:32 35.89952 -108.42445 42823 ft 394 kts 293°
2026-05-06 01:32 35.92788 -108.48224 42823 ft 394 kts 293°
2026-05-06 01:33 35.95628 -108.54016 42822 ft 394 kts 293°
2026-05-06 01:33 35.98462 -108.59806 42815 ft 394 kts 293°
2026-05-06 01:34 36.01292 -108.65604 42831 ft 395 kts 293°
2026-05-06 01:34 36.04127 -108.71420 42834 ft 395 kts 293°
2026-05-06 01:35 36.06959 -108.77235 42827 ft 395 kts 293°
2026-05-06 01:35 36.09791 -108.83061 42830 ft 395 kts 293°
2026-05-06 01:36 36.12620 -108.88892 42831 ft 395 kts 293°
2026-05-06 01:36 36.15425 -108.94685 42831 ft 395 kts 293°
2026-05-06 01:37 36.18244 -109.00520 42829 ft 395 kts 293°
2026-05-06 01:37 36.21060 -109.06353 42833 ft 395 kts 294°
2026-05-06 01:38 36.23878 -109.12201 42872 ft 395 kts 294°
2026-05-06 01:38 36.26694 -109.18058 42840 ft 396 kts 294°
2026-05-06 01:39 36.29512 -109.23927 42840 ft 396 kts 294°
2026-05-06 01:39 36.32330 -109.29806 42820 ft 397 kts 294°
2026-05-06 01:40 36.35144 -109.35690 42842 ft 397 kts 294°
2026-05-06 01:40 36.37960 -109.41588 42823 ft 398 kts 294°
2026-05-06 01:41 36.40779 -109.47499 42805 ft 398 kts 294°
2026-05-06 01:41 36.43598 -109.53424 42802 ft 399 kts 294°
2026-05-06 01:42 36.46458 -109.59444 42783 ft 400 kts 294°
2026-05-06 01:42 36.49283 -109.65400 42783 ft 400 kts 294°
2026-05-06 01:43 36.52103 -109.71357 42788 ft 400 kts 294°
2026-05-06 01:43 36.54907 -109.77296 42770 ft 401 kts 294°
2026-05-06 01:44 36.57738 -109.83298 42769 ft 404 kts 295°
2026-05-06 01:44 36.60589 -109.89355 42757 ft 407 kts 295°
2026-05-06 01:45 36.63461 -109.95464 42767 ft 410 kts 295°
2026-05-06 01:45 36.66346 -110.01615 42745 ft 413 kts 295°
2026-05-06 01:46 36.69246 -110.07806 42758 ft 415 kts 295°
2026-05-06 01:46 36.72155 -110.14029 42763 ft 416 kts 295°
2026-05-06 01:47 36.75070 -110.20280 42738 ft 418 kts 295°
2026-05-06 01:47 36.77990 -110.26548 42751 ft 418 kts 295°
2026-05-06 01:48 36.80910 -110.32831 42755 ft 419 kts 295°
2026-05-06 01:48 36.83829 -110.39123 42769 ft 419 kts 295°
2026-05-06 01:49 36.86742 -110.45420 42752 ft 419 kts 295°
2026-05-06 01:49 36.89661 -110.51737 42758 ft 420 kts 295°
2026-05-06 01:50 36.92583 -110.58074 42729 ft 421 kts 295°
2026-05-06 01:50 36.95506 -110.64421 42729 ft 421 kts 295°
2026-05-06 01:51 36.98424 -110.70773 42735 ft 421 kts 295°
2026-05-06 01:51 37.01339 -110.77130 42707 ft 421 kts 295°
2026-05-06 01:52 37.04233 -110.83457 42714 ft 422 kts 296°
2026-05-06 01:52 37.07150 -110.89845 42705 ft 423 kts 296°
2026-05-06 01:53 37.10073 -110.96256 42701 ft 424 kts 296°
2026-05-06 01:53 37.12990 -111.02666 42690 ft 423 kts 295°
2026-05-06 01:54 37.15906 -111.09088 42694 ft 424 kts 295°
2026-05-06 01:54 37.18818 -111.15518 42715 ft 424 kts 296°
2026-05-06 01:55 37.21737 -111.21972 42696 ft 426 kts 296°
2026-05-06 01:55 37.24510 -111.28533 42697 ft 425 kts 293°
2026-05-06 01:56 37.27099 -111.35193 42688 ft 425 kts 292°
2026-05-06 01:56 37.29698 -111.41857 42707 ft 425 kts 293°
2026-05-06 01:57 37.32317 -111.48512 42706 ft 425 kts 293°
2026-05-06 01:57 37.34924 -111.55121 42706 ft 424 kts 293°
2026-05-06 01:58 37.37542 -111.61755 42712 ft 423 kts 293°
2026-05-06 01:58 37.40155 -111.68390 42723 ft 424 kts 293°
2026-05-06 01:59 37.42768 -111.75042 42736 ft 424 kts 293°
2026-05-06 01:59 37.45379 -111.81704 42758 ft 424 kts 293°
2026-05-06 02:00 37.47983 -111.88378 42796 ft 425 kts 294°
2026-05-06 02:00 37.50587 -111.95057 42860 ft 426 kts 294°
2026-05-06 02:01 37.53174 -112.01740 42897 ft 425 kts 294°
2026-05-06 02:01 37.55784 -112.08428 42928 ft 426 kts 295°
2026-05-06 02:02 37.58404 -112.15158 42946 ft 428 kts 294°
2026-05-06 02:02 37.61023 -112.21900 42950 ft 428 kts 294°
2026-05-06 02:03 37.63634 -112.28650 42955 ft 428 kts 294°
2026-05-06 02:03 37.66229 -112.35411 42929 ft 428 kts 294°
2026-05-06 02:04 37.68815 -112.42146 42902 ft 429 kts 294°
2026-05-06 02:04 37.71420 -112.48923 42873 ft 429 kts 294°
2026-05-06 02:05 37.74021 -112.55712 42831 ft 430 kts 294°
2026-05-06 02:05 37.76619 -112.62511 42831 ft 430 kts 294°
2026-05-06 02:06 37.79218 -112.69331 42845 ft 430 kts 295°
2026-05-06 02:06 37.81376 -112.75004 42852 ft 430 kts 295°
2026-05-06 02:07 37.83967 -112.81833 42863 ft 431 kts 295°
2026-05-06 02:07 37.86561 -112.88680 42865 ft 432 kts 295°
2026-05-06 02:08 37.89153 -112.95538 42867 ft 432 kts 295°
2026-05-06 02:08 37.91743 -113.02406 42858 ft 432 kts 295°
2026-05-06 02:09 37.94327 -113.09280 42850 ft 432 kts 295°
2026-05-06 02:09 37.96910 -113.16163 42783 ft 433 kts 295°
2026-05-06 02:10 37.99494 -113.23062 42779 ft 433 kts 295°
2026-05-06 02:10 38.02076 -113.29971 42779 ft 434 kts 295°
2026-05-06 02:11 38.04637 -113.36842 42784 ft 434 kts 295°
2026-05-06 02:11 38.07231 -113.43815 42785 ft 434 kts 295°
2026-05-06 02:12 38.09783 -113.50695 42797 ft 434 kts 295°
2026-05-06 02:12 38.12352 -113.57631 42801 ft 434 kts 295°
2026-05-06 02:13 38.14914 -113.64569 42810 ft 434 kts 295°
2026-05-06 02:13 38.17475 -113.71517 42814 ft 434 kts 295°
2026-05-06 02:14 38.20037 -113.78486 42823 ft 435 kts 295°
2026-05-06 02:14 38.22594 -113.85456 42826 ft 435 kts 295°
2026-05-06 02:15 38.25146 -113.92429 42836 ft 435 kts 295°
2026-05-06 02:15 38.27700 -113.99423 42835 ft 435 kts 295°
2026-05-06 02:16 38.30248 -114.06419 42833 ft 436 kts 295°
2026-05-06 02:16 38.32794 -114.13426 42830 ft 436 kts 295°
2026-05-06 02:17 38.35340 -114.20450 42835 ft 437 kts 295°
2026-05-06 02:17 38.37883 -114.27477 42838 ft 436 kts 296°
2026-05-06 02:18 38.40421 -114.34501 42847 ft 436 kts 296°
2026-05-06 02:18 38.43228 -114.41295 42842 ft 436 kts 300°
2026-05-06 02:19 38.46203 -114.48047 42847 ft 436 kts 300°
2026-05-06 02:19 38.49145 -114.54821 42845 ft 436 kts 300°
2026-05-06 02:20 38.53499 -114.65015 42853 ft 434 kts 300°
2026-05-06 02:21 38.56363 -114.71779 42865 ft 431 kts 300°
2026-05-06 02:21 38.59205 -114.78502 42859 ft 429 kts 300°
2026-05-06 02:22 38.62036 -114.85214 42879 ft 428 kts 300°
2026-05-06 02:22 38.64860 -114.91925 42704 ft 428 kts 300°
2026-05-06 02:22 38.66270 -114.95287 42181 ft 431 kts 300°
2026-05-06 02:23 38.67698 -114.98691 41601 ft 436 kts 300°
2026-05-06 02:23 38.69141 -115.02133 41018 ft 440 kts 301°
2026-05-06 02:23 38.70596 -115.05598 40458 ft 443 kts 300°
2026-05-06 02:23 38.72052 -115.09084 39927 ft 444 kts 301°
2026-05-06 02:24 38.73503 -115.12563 39411 ft 442 kts 301°
2026-05-06 02:24 38.74953 -115.16030 38891 ft 441 kts 301°
2026-05-06 02:24 38.76391 -115.19486 38341 ft 439 kts 302°
2026-05-06 02:24 38.77805 -115.22886 37725 ft 437 kts 303°
2026-05-06 02:25 38.79235 -115.26321 37116 ft 435 kts 303°
2026-05-06 02:25 38.80657 -115.29740 36512 ft 434 kts 304°
2026-05-06 02:25 38.82073 -115.33155 35924 ft 432 kts 304°
2026-05-06 02:25 38.83488 -115.36564 35370 ft 434 kts 305°
2026-05-06 02:26 38.84907 -115.39990 34821 ft 436 kts 305°
2026-05-06 02:26 38.86333 -115.43432 34291 ft 437 kts 306°
2026-05-06 02:26 38.87759 -115.46882 33732 ft 438 kts 306°
2026-05-06 02:26 38.89187 -115.50342 33117 ft 438 kts 306°
2026-05-06 02:27 38.90609 -115.53786 32501 ft 436 kts 305°
2026-05-06 02:27 38.92029 -115.57227 31903 ft 434 kts 305°
2026-05-06 02:27 38.93441 -115.60652 31319 ft 434 kts 304°
2026-05-06 02:27 38.94851 -115.64086 30753 ft 435 kts 305°
2026-05-06 02:28 38.96261 -115.67534 30195 ft 435 kts 304°
2026-05-06 02:28 38.97665 -115.70972 29580 ft 434 kts 304°
2026-05-06 02:28 38.99070 -115.74400 28949 ft 433 kts 304°
2026-05-06 02:28 39.00474 -115.77823 28320 ft 432 kts 304°
2026-05-06 02:29 39.01872 -115.81229 27692 ft 429 kts 303°
2026-05-06 02:29 39.03247 -115.84608 27092 ft 424 kts 303°
2026-05-06 02:29 39.04588 -115.87903 26493 ft 419 kts 303°
2026-05-06 02:29 39.05948 -115.91250 25891 ft 416 kts 303°
2026-05-06 02:30 39.07268 -115.94492 25348 ft 412 kts 303°
2026-05-06 02:30 39.08587 -115.97748 24794 ft 409 kts 303°
2026-05-06 02:30 39.09903 -116.00988 24257 ft 407 kts 303°
2026-05-06 02:30 39.11209 -116.04199 23731 ft 404 kts 303°
2026-05-06 02:31 39.12510 -116.07395 23149 ft 402 kts 302°
2026-05-06 02:31 39.13797 -116.10573 22527 ft 400 kts 302°
2026-05-06 02:31 39.15080 -116.13743 21916 ft 398 kts 302°
2026-05-06 02:31 39.16355 -116.16898 21327 ft 396 kts 302°
2026-05-06 02:32 39.17631 -116.20050 20748 ft 395 kts 302°
2026-05-06 02:32 39.18898 -116.23189 20178 ft 394 kts 302°
2026-05-06 02:32 39.20157 -116.26318 19592 ft 393 kts 302°
2026-05-06 02:32 39.21412 -116.29442 19045 ft 391 kts 302°
2026-05-06 02:33 39.22661 -116.32552 18505 ft 390 kts 301°
2026-05-06 02:33 39.23478 -116.34586 18149 ft 389 kts 301°
2026-05-06 02:33 39.26006 -116.42042 16745 ft 388 kts 293°
2026-05-06 02:34 39.26892 -116.45320 16179 ft 387 kts 293°
2026-05-06 02:34 39.27768 -116.48575 15760 ft 381 kts 293°
2026-05-06 02:34 39.28540 -116.51834 15326 ft 380 kts 288°
2026-05-06 02:34 39.29079 -116.55159 14904 ft 378 kts 285°
2026-05-06 02:35 39.29540 -116.58482 14480 ft 375 kts 284°
2026-05-06 02:35 39.29926 -116.61811 14069 ft 374 kts 283°
2026-05-06 02:35 39.30337 -116.65111 13665 ft 372 kts 284°
2026-05-06 02:35 39.30784 -116.68387 13223 ft 369 kts 284°
2026-05-06 02:36 39.31249 -116.71649 12785 ft 368 kts 285°
2026-05-06 02:36 39.31722 -116.74893 12351 ft 367 kts 285°
2026-05-06 02:36 39.32187 -116.78047 11936 ft 354 kts 285°
2026-05-06 02:36 39.32646 -116.81103 11529 ft 340 kts 285°
2026-05-06 02:37 39.33158 -116.84076 11111 ft 327 kts 287°
2026-05-06 02:37 39.33662 -116.86808 10746 ft 308 kts 288°
2026-05-06 02:37 39.34164 -116.89374 10515 ft 281 kts 289°
2026-05-06 02:37 39.34688 -116.91736 10499 ft 267 kts 292°
2026-05-06 02:38 39.35282 -116.93995 10523 ft 265 kts 297°
2026-05-06 02:38 39.36043 -116.96153 10545 ft 263 kts 300°
2026-05-06 02:38 39.36865 -116.98262 10581 ft 264 kts 301°
2026-05-06 02:38 39.37711 -117.00368 10629 ft 264 kts 302°
2026-05-06 02:39 39.38565 -117.02471 10669 ft 265 kts 301°
2026-05-06 02:39 39.39176 -117.04749 10734 ft 270 kts 290°
2026-05-06 02:39 39.39567 -117.07133 10836 ft 275 kts 279°
2026-05-06 02:39 39.39530 -117.09626 10759 ft 280 kts 271°
2026-05-06 02:40 39.39380 -117.12101 10551 ft 273 kts 270°
2026-05-06 02:40 39.39196 -117.14485 10236 ft 260 kts 269°
2026-05-06 02:40 39.38996 -117.16756 9903 ft 250 kts 269°
2026-05-06 02:40 39.38798 -117.18870 9556 ft 227 kts 269°
2026-05-06 02:41 39.38637 -117.20871 9130 ft 220 kts 273°
2026-05-06 02:41 39.38876 -117.22689 8699 ft 193 kts 293°
2026-05-06 02:41 39.39684 -117.23898 8074 ft 173 kts 340°
2026-05-06 02:41 39.40809 -117.23789 7371 ft 161 kts 27°
2026-05-06 02:42 39.41638 -117.22869 7053 ft 152 kts 44°
2026-05-06 02:42 39.42452 -117.22049 6623 ft 149 kts 28°
2026-05-06 02:42 39.43365 -117.21495 6360 ft 144 kts 27°
2026-05-06 02:42 39.44297 -117.20977 6121 ft 145 kts 22°
2026-05-06 02:43 39.45226 -117.20524 5901 ft 140 kts 23°
2026-05-06 02:43 39.46122 -117.20080 5742 ft 134 kts 23°
2026-05-06 02:43 39.46765 -117.19760 5737 ft 37 kts 19°
2026-05-06 02:43 39.46858 -117.19717 5737 ft 9 kts 21°
2026-05-06 02:44 39.46929 -117.19680 5734 ft 13 kts 22°
2026-05-06 02:44 39.47003 -117.19618 5734 ft 11 kts 85°
2026-05-06 02:44 39.46947 -117.19548 5733 ft 11 kts 139°
2026-05-06 02:44 39.46897 -117.19495 5733 ft 5 kts 112°
2026-05-06 02:45 39.46900 -117.19482 5733 ft 0 kts 47°